2023/02/03 00:00:00,74.4,-0.6
2023/02/03 00:10:00,74.3,-0.5
2023/02/03 00:20:00,74.3,-0.4
2023/02/03 00:30:00,74.3,-0.4
2023/02/03 00:40:00,74.2,-0.5
2023/02/03 00:50:00,74.2,-0.4
2023/02/03 01:00:00,74.1,-0.7
2023/02/03 01:10:00,74.1,-0.5
2023/02/03 01:20:00,74.1,-0.7
2023/02/03 01:30:00,74.1,-0.5
2023/02/03 01:40:00,74.0,-0.8
2023/02/03 01:50:00,74.0,-0.7
2023/02/03 02:00:00,73.9,-0.7
2023/02/03 02:10:00,73.9,-0.7
2023/02/03 02:20:00,73.9,-0.7
2023/02/03 02:30:00,73.9,-0.9
2023/02/03 02:40:00,73.9,-0.7
2023/02/03 02:50:00,73.9,-0.7
2023/02/03 03:00:00,73.8,-0.6
2023/02/03 03:10:00,73.8,-0.7
2023/02/03 03:20:00,73.8,-0.7
2023/02/03 03:30:00,73.9,-0.5
2023/02/03 03:40:00,73.8,-0.7
2023/02/03 03:50:00,73.8,-0.5
2023/02/03 04:00:00,73.7,-0.7
2023/02/03 04:10:00,73.7,-1.0
2023/02/03 04:20:00,73.8,-1.5
2023/02/03 04:30:00,73.7,-1.6
2023/02/03 04:40:00,73.7,-1.4
2023/02/03 04:50:00,73.6,-1.3
2023/02/03 05:00:00,73.7,-1.2
2023/02/03 05:10:00,73.7,-0.8
2023/02/03 05:20:00,73.6,-1.2
2023/02/03 05:30:00,73.6,-0.8
2023/02/03 05:40:00,73.6,-1.1
2023/02/03 05:50:00,73.6,-0.8
2023/02/03 06:00:00,73.6,-1.4
2023/02/03 06:10:00,73.6,-0.8
2023/02/03 06:20:00,73.4,-0.4
2023/02/03 06:30:00,73.3,-0.8
2023/02/03 06:40:00,73.2,-0.7
2023/02/03 06:50:00,73.2,-0.7
2023/02/03 07:00:00,73.2,-0.8
2023/02/03 07:10:00,73.1,-0.9
2023/02/03 07:20:00,73.2,-1.0
2023/02/03 07:30:00,73.2,-1.1
2023/02/03 07:40:00,73.1,-0.9
2023/02/03 07:50:00,73.1,-0.5
2023/02/03 08:00:00,72.9,-0.4
2023/02/03 08:10:00,72.9,-0.2
2023/02/03 08:20:00,72.8, 0.2
2023/02/03 08:30:00,72.7, 0.9
2023/02/03 08:40:00,72.7, 1.2
2023/02/03 08:50:00,72.7, 1.2
2023/02/03 09:00:00,72.6, 1.5
2023/02/03 09:10:00,72.5, 1.9
2023/02/03 09:20:00,72.4, 2.4
2023/02/03 09:30:00,72.3, 2.4
2023/02/03 09:40:00,72.3, 2.6
2023/02/03 09:50:00,72.3, 2.6
2023/02/03 10:00:00,72.3, 3.1
2023/02/03 10:10:00,72.2, 3.4
2023/02/03 10:20:00,72.3, 3.7
2023/02/03 10:30:00,72.1, 3.2
2023/02/03 10:40:00,72.0, 4.4
2023/02/03 10:50:00,71.8, 5.0
2023/02/03 11:00:00,71.5, 5.0
2023/02/03 11:10:00,71.6, 4.5
2023/02/03 11:20:00,71.5, 5.0
2023/02/03 11:30:00,71.1, 5.5
2023/02/03 11:40:00,70.8, 5.8
2023/02/03 11:50:00,70.5, 5.2
2023/02/03 12:00:00,70.7, 4.6
2023/02/03 12:10:00,71.0, 3.5
2023/02/03 12:20:00,70.9, 3.4
2023/02/03 12:30:00,70.8, 3.8
2023/02/03 12:40:00,70.3, 5.0
2023/02/03 12:50:00,70.3, 5.1
2023/02/03 13:00:00,70.2, 5.1
2023/02/03 13:10:00,70.3, 4.6
2023/02/03 13:20:00,70.3, 4.5
2023/02/03 13:30:00,70.0, 4.6
2023/02/03 13:40:00,70.6, 3.9
2023/02/03 13:50:00,70.9, 3.5
2023/02/03 14:00:00,70.9, 2.9
2023/02/03 14:10:00,70.8, 2.9
2023/02/03 14:20:00,70.8, 2.5
2023/02/03 14:30:00,70.7, 2.5
2023/02/03 14:40:00,70.7, 2.5
2023/02/03 14:50:00,70.6, 2.7
2023/02/03 15:00:00,70.5, 2.7
2023/02/03 15:10:00,70.6, 2.2
2023/02/03 15:20:00,70.6, 2.4
2023/02/03 15:30:00,70.3, 2.3
2023/02/03 15:40:00,70.4, 2.4
2023/02/03 15:50:00,70.3, 2.1
2023/02/03 16:00:00,70.3, 2.0
2023/02/03 16:10:00,70.2, 1.6
2023/02/03 16:20:00,70.1, 1.4
2023/02/03 16:30:00,70.1, 1.5
2023/02/03 16:40:00,69.8, 1.8
2023/02/03 16:50:00,69.7, 1.6
2023/02/03 17:00:00,69.9, 1.3
2023/02/03 17:10:00,69.9, 1.0
2023/02/03 17:20:00,69.9, 1.0
2023/02/03 17:30:00,69.8, 0.8
2023/02/03 17:40:00,69.8, 0.9
2023/02/03 17:50:00,69.8, 0.9
2023/02/03 18:00:00,69.9, 0.7
2023/02/03 18:10:00,69.9, 0.5
2023/02/03 18:20:00,69.8, 0.4
2023/02/03 18:30:00,69.7, 0.6
2023/02/03 18:40:00,69.7, 0.4
2023/02/03 18:50:00,69.7, 0.4
2023/02/03 19:00:00,69.6, 0.2
2023/02/03 19:10:00,69.6,-0.1
2023/02/03 19:20:00,69.5, 0.0
2023/02/03 19:30:00,69.5,-0.4
2023/02/03 19:40:00,69.5,-0.5
2023/02/03 19:50:00,69.6,-0.7
2023/02/03 20:00:00,69.5,-0.7
2023/02/03 20:10:00,69.4,-1.0
2023/02/03 20:20:00,69.4,-0.9
2023/02/03 20:30:00,69.4,-1.0
2023/02/03 20:40:00,69.4,-0.7
2023/02/03 20:50:00,69.3,-1.1
2023/02/03 21:00:00,69.3,-0.9
2023/02/03 21:10:00,69.3,-0.7
2023/02/03 21:20:00,69.3,-0.6
2023/02/03 21:30:00,69.2,-0.8
2023/02/03 21:40:00,69.2,-0.9
2023/02/03 21:50:00,69.2,-1.1
2023/02/03 22:00:00,69.2,-1.3
2023/02/03 22:10:00,69.1,-1.4
2023/02/03 22:20:00,69.1,-1.3
2023/02/03 22:30:00,69.1,-1.0
2023/02/03 22:40:00,69.1,-1.2
2023/02/03 22:50:00,69.0,-1.6
2023/02/03 23:00:00,69.0,-1.6
2023/02/03 23:10:00,69.0,-1.8
2023/02/03 23:20:00,69.0,-1.5
2023/02/03 23:30:00,69.0,-1.5
2023/02/03 23:40:00,69.0,-1.4
2023/02/03 23:50:00,69.0,-1.4
